GW0702 Weather Reports


time (UTC)temp
F
wind
direction
speed
knots
gust
knots
rain 1hr
in
rain 24hr
in
rain mn
in
humidity
%
barometer
mb
20260507103627 26 353 1.7 2.6 0.00 0.00 0.00 79 1012.8
20260507103124 26 355 0.9 2.6 0.00 0.00 0.00 78 1012.8
20260507102621 26 13 2.6 4.3 0.00 0.00 0.00 78 1012.6
20260507102117 26 0 2.6 3.5 0.00 0.00 0.00 78 1012.7
20260507101613 25 14 1.7 3.5 0.00 0.00 0.00 79 1012.9
20260507101109 26 42 2.6 3.5 0.00 0.00 0.00 77 1012.7
20260507100606 26 67 1.7 1.7 0.00 0.00 0.00 78 1012.6
20260507100104 26 19 1.7 2.6 0.00 0.00 0.00 78 1012.7
20260507095602 26 21 1.7 2.6 0.00 0.00 0.00 78 1012.7
20260507095058 26 63 1.7 3.5 0.00 0.00 0.00 77 1012.7
20260507094553 27 39 4.3 4.3 0.00 0.00 0.00 76 1012.8
20260507094046 28 14 0.9 2.6 0.00 0.00 0.00 76 1012.8
20260507093543 28 24 1.7 2.6 0.00 0.00 0.00 76 1012.9
20260507093042 28 26 1.7 2.6 0.00 0.00 0.00 76 1012.8
20260507092537 28 45 0.0 1.7 0.00 0.00 0.00 77 1012.7
20260507092035 27 0 0.9 1.7 0.00 0.00 0.00 77 1012.6
20260507091531 27 28 0.0 1.7 0.00 0.00 0.00 78 1012.8
20260507091027 26 45 1.7 2.6 0.00 0.00 0.00 79 1012.6
20260507090523 26 0 1.7 2.6 0.00 0.00 0.00 78 1012.8
20260507090020 26 12 1.7 2.6 0.00 0.00 0.00 78 1012.8
20260507085518 26 52 2.6 3.5 0.00 0.00 0.00 79 1012.8
20260507085014 26 42 2.6 2.6 0.00 0.00 0.00 78 1012.7
20260507084511 26 18 0.9 2.6 0.00 0.00 0.00 79 1012.9
20260507084008 26 29 0.0 0.0 0.00 0.00 0.00 79 1012.5
20260507083504 26 26 0.0 1.7 0.00 0.00 0.00 78 1012.7
20260507083001 26 38 1.7 2.6 0.00 0.00 0.00 78 1012.8
20260507082457 25 66 0.0 1.7 0.00 0.00 0.00 79 1012.7
20260507081953 25 98 0.0 1.7 0.00 0.00 0.00 79 1012.7
20260507081450 24 111 0.0 1.7 0.00 0.00 0.00 79 1012.8
20260507080947 25 209 0.0 0.9 0.00 0.00 0.00 78 1012.9
20260507080442 25 180 0.0 0.9 0.00 0.00 0.00 78 1013.1
20260507075938 25 180 0.0 0.0 0.00 0.00 0.00 79 1012.9
20260507075435 25 180 0.0 1.7 0.00 0.00 0.00 78 1013.1
20260507074931 25 203 0.9 1.7 0.00 0.00 0.00 78 1012.9
20260507074428 25 180 0.0 1.7 0.00 0.00 0.00 78 1013.2
20260507073926 25 192 0.9 1.7 0.00 0.00 0.00 78 1013.2
20260507073422 25 225 1.7 1.7 0.00 0.00 0.00 78 1013.2
20260507072919 25 199 1.7 1.7 0.00 0.00 0.00 77 1013.1
20260507072417 26 195 1.7 1.7 0.00 0.00 0.00 77 1013.2
20260507071914 26 176 1.7 1.7 0.00 0.00 0.00 76 1013.2
20260507071411 26 157 0.0 0.9 0.00 0.00 0.00 76 1013.2
20260507070907 27 164 0.0 0.9 0.00 0.00 0.00 75 1013.2
20260507070405 27 166 0.0 0.9 0.00 0.00 0.00 75 1013.2
20260507065901 27 151 0.0 0.0 0.00 0.00 0.00 75 1013.2
20260507065358 27 157 0.0 0.9 0.00 0.00 0.00 76 1013.5
20260507064855 26 168 0.0 0.0 0.00 0.00 0.00 77 1013.3
20260507064354 26 194 0.0 0.0 0.00 0.00 0.00 77 1013.4
20260507063851 26 180 0.0 1.7 0.00 0.00 0.00 77 1013.4
20260507063348 27 198 0.0 2.6 0.00 0.00 0.00 76 1013.5
20260507062845 27 210 1.7 3.5 0.00 0.00 0.00 75 1013.4
20260507062341 28 200 0.9 1.7 0.00 0.00 0.00 74 1013.3
20260507061839 28 180 0.9 0.9 0.00 0.00 0.00 74 1013.5
20260507061337 28 180 0.9 0.9 0.00 0.00 0.00 74 1013.4
20260507060836 28 184 0.0 1.7 0.00 0.00 0.00 74 1013.4
20260507060332 28 198 0.9 1.7 0.00 0.00 0.00 74 1013.4
20260507055829 29 201 1.7 2.6 0.00 0.00 0.00 73 1013.5
20260507055324 29 209 0.0 1.7 0.00 0.00 0.00 74 1013.5
20260507054821 29 206 1.7 2.6 0.00 0.00 0.00 73 1013.5
20260507054316 29 192 0.9 1.7 0.00 0.00 0.00 72 1013.6
20260507053814 29 194 0.9 0.9 0.00 0.00 0.00 71 1013.6
20260507053312 30 203 0.9 1.7 0.00 0.00 0.00 71 1013.6
20260507052811 30 180 0.0 1.7 0.00 0.00 0.00 70 1013.5
20260507052307 30 173 0.9 0.9 0.00 0.00 0.00 71 1013.7
20260507051805 30 169 0.0 1.7 0.00 0.00 0.00 71 1013.8
20260507051302 30 157 0.0 0.9 0.00 0.00 0.00 70 1013.6
20260507050759 31 180 0.0 1.7 0.00 0.00 0.00 69 1013.6
20260507050255 32 175 0.0 1.7 0.00 0.00 0.00 69 1013.7
20260507045752 33 172 1.7 1.7 0.00 0.00 0.00 67 1013.6
20260507045249 33 160 0.0 0.9 0.00 0.00 0.00 66 1013.7
20260507044746 33 36 0.0 1.7 0.00 0.00 0.00 66 1014.0
20260507044242 34 173 0.0 0.0 0.00 0.00 0.00 65 1013.7
20260507043738 34 157 0.0 0.9 0.00 0.00 0.00 65 1013.8
20260507043235 34 180 0.9 0.9 0.00 0.00 0.00 66 1013.6
20260507042731 34 151 0.0 0.9 0.00 0.00 0.00 64 1013.8
20260507042226 35 173 0.0 0.9 0.00 0.00 0.00 63 1013.9
20260507041724 36 173 0.0 0.0 0.00 0.00 0.00 63 1013.9
20260507041221 36 180 0.0 0.9 0.00 0.00 0.00 62 1013.9
20260507040718 36 165 0.0 0.9 0.00 0.00 0.00 63 1014.0
20260507040214 36 120 0.0 1.7 0.00 0.00 0.00 63 1014.0
20260507035710 37 154 0.0 0.0 0.00 0.00 0.00 62 1014.1
20260507035205 37 160 0.9 1.7 0.00 0.00 0.00 61 1014.2
20260507034702 37 186 0.0 0.0 0.00 0.00 0.00 62 1014.0
20260507034200 37 186 0.0 0.9 0.00 0.00 0.00 61 1014.0
20260507033658 38 180 1.7 2.6 0.00 0.00 0.00 59 1014.1
20260507033155 38 166 0.9 1.7 0.00 0.00 0.00 58 1014.0
20260507032653 39 66 0.9 0.9 0.00 0.00 0.00 57 1014.1
20260507032148 39 145 0.0 0.0 0.00 0.00 0.00 57 1014.3
20260507031645 39 145 0.0 0.9 0.00 0.00 0.00 56 1014.2
20260507031142 40 140 0.0 1.7 0.00 0.00 0.00 56 1014.2
20260507030639 41 83 0.9 1.7 0.00 0.00 0.00 52 1014.2
20260507030137 41 90 1.7 2.6 0.00 0.00 0.00 51 1014.0
20260507025633 42 86 2.6 3.5 0.00 0.00 0.00 51 1014.1
20260507025130 42 69 2.6 3.5 0.00 0.00 0.00 50 1014.0
20260507024628 42 95 1.7 4.3 0.00 0.00 0.00 49 1014.1
20260507024125 43 58 3.5 4.3 0.00 0.00 0.00 49 1014.1
20260507023621 43 59 5.2 5.2 0.00 0.00 0.00 48 1014.0
20260507023119 43 45 3.5 5.2 0.00 0.00 0.00 48 1014.2
20260507022615 43 51 2.6 4.3 0.00 0.00 0.00 49 1014.1
20260507022110 44 38 2.6 5.2 0.00 0.00 0.00 48 1013.9
20260507021607 44 54 2.6 3.5 0.00 0.00 0.00 47 1013.9
20260507021103 45 47 2.6 4.3 0.00 0.00 0.00 46 1014.0
20260507020602 46 67 2.6 4.3 0.00 0.00 0.00 45 1014.0
20260507020057 46 42 2.6 5.2 0.00 0.00 0.00 45 1013.9
20260507015556 46 36 2.6 4.3 0.00 0.00 0.00 44 1014.1
20260507015053 46 73 5.2 5.2 0.00 0.00 0.00 44 1014.1
20260507014550 47 55 0.0 5.2 0.00 0.00 0.00 44 1014.0
20260507014045 47 116 2.6 4.3 0.00 0.00 0.00 44 1014.1
20260507013542 47 45 5.2 5.2 0.00 0.00 0.00 44 1013.8
20260507013039 47 66 3.5 4.3 0.00 0.00 0.00 43 1013.9
20260507012537 48 46 4.3 6.1 0.00 0.00 0.00 42 1013.9
20260507012032 48 71 2.6 3.5 0.00 0.00 0.00 42 1014.0
20260507011530 48 60 2.6 3.5 0.00 0.00 0.00 41 1013.8
20260507011026 49 55 1.7 4.3 0.00 0.00 0.00 42 1014.0
20260507010520 49 78 2.6 3.5 0.00 0.00 0.00 43 1014.0
20260507010017 49 63 2.6 3.5 0.00 0.00 0.00 42 1014.1
20260507005515 49 33 2.6 4.3 0.00 0.00 0.00 40 1014.0
20260507005011 50 40 2.6 6.1 0.00 0.00 0.00 38 1014.1
20260507004508 51 32 3.5 4.3 0.00 0.00 0.00 38 1014.2
20260507004006 51 17 2.6 6.1 0.00 0.00 0.00 39 1014.1
20260507003501 51 30 3.5 5.2 0.00 0.00 0.00 38 1014.2
20260507002955 51 15 2.6 7.8 0.00 0.00 0.00 37 1014.2
20260507002453 52 18 3.5 7.8 0.00 0.00 0.00 36 1014.2
20260507001949 52 353 1.7 5.2 0.00 0.00 0.00 36 1014.0
20260507001446 51 17 0.0 7.8 0.00 0.00 0.00 36 1014.2
20260507000944 53 18 2.6 5.2 0.00 0.00 0.00 34 1014.3
20260507000439 52 17 1.7 7.8 0.00 0.00 0.00 33 1014.3
20260506235935 53 317 4.3 4.3 0.00 0.00 0.00 34 1014.1
20260506235432 53 19 1.7 2.6 0.00 0.00 0.00 33 1014.1
20260506234927 53 298 6.1 10.4 0.00 0.00 0.00 35 1014.3
20260506234425 52 23 6.1 7.0 0.00 0.00 0.00 34 1014.3
20260506233923 53 353 3.5 10.4 0.00 0.00 0.00 34 1014.4
20260506233419 53 334 5.2 9.6 0.00 0.00 0.00 34 1014.4
20260506232916 52 343 4.3 10.4 0.00 0.00 0.00 34 1014.3
20260506232412 52 31 3.5 7.8 0.00 0.00 0.00 36 1014.4
20260506231908 52 50 2.6 6.1 0.00 0.00 0.00 36 1014.5
20260506231406 53 350 4.3 7.0 0.00 0.00 0.00 34 1014.9
20260506230903 52 341 3.5 9.6 0.00 0.00 0.00 34 1014.5
20260506230359 51 327 9.6 13.0 0.00 0.00 0.00 35 1014.6
20260506225856 52 340 2.6 11.3 0.00 0.00 0.00 36 1014.6
20260506225353 53 330 6.1 7.0 0.00 0.00 0.00 35 1014.9
20260506224850 53 15 4.3 7.8 0.00 0.00 0.00 33 1014.9
20260506224348 55 0 1.7 9.6 0.00 0.00 0.00 35 1014.9
20260506223844 54 307 2.6 7.0 0.00 0.00 0.00 33 1014.9
20260506223339 54 319 1.7 13.0 0.00 0.00 0.00 35 1014.9
20260506222836 53 138 2.6 6.1 0.00 0.00 0.00 32 1015.1
20260506222332 54 208 4.3 4.3 0.00 0.00 0.00 33 1015.0
20260506221830 53 109 2.6 5.2 0.00 0.00 0.00 35 1014.9
20260506221327 54 40 3.5 8.7 0.00 0.00 0.00 34 1015.1
20260506220825 54 0 0.9 3.5 0.00 0.00 0.00 36 1015.1
20260506220320 53 341 5.2 11.3 0.00 0.00 0.00 35 1015.2
20260506215817 53 306 7.8 9.6 0.00 0.00 0.00 35 1015.1
20260506215313 52 6 3.5 4.3 0.00 0.00 0.00 35 1015.2
20260506214809 55 225 3.5 8.7 0.00 0.00 0.00 36 1015.4
20260506214306 52 300 4.3 9.6 0.00 0.00 0.00 36 1015.6
20260506213804 53 237 4.3 4.3 0.00 0.00 0.00 35 1015.7
20260506213300 54 292 6.1 11.3 0.00 0.00 0.00 33 1015.6
20260506212758 53 180 1.7 7.8 0.00 0.00 0.00 35 1015.7
20260506212254 52 327 2.6 8.7 0.00 0.00 0.00 37 1015.9
20260506211749 51 348 2.6 7.8 0.00 0.00 0.00 36 1015.8
20260506211245 52 290 6.1 9.6 0.00 0.00 0.00 36 1016.0
20260506210743 53 341 3.5 9.6 0.00 0.00 0.00 36 1016.2
20260506210239 51 324 2.6 7.8 0.00 0.00 0.00 37 1016.2
20260506205736 52 302 3.5 13.9 0.00 0.00 0.00 38 1016.1
20260506205232 52 205 5.2 10.4 0.00 0.00 0.00 35 1016.2
20260506204729 53 234 3.5 4.3 0.00 0.00 0.00 35 1016.2
20260506204226 52 27 5.2 7.8 0.00 0.00 0.00 37 1016.4
20260506203724 52 217 8.7 8.7 0.00 0.00 0.00 36 1016.4
20260506203221 52 19 4.3 7.0 0.00 0.00 0.00 37 1016.4
20260506202719 52 342 7.0 10.4 0.00 0.00 0.00 36 1016.7
20260506202215 51 317 2.6 6.1 0.00 0.00 0.00 39 1016.8
20260506201712 51 285 0.0 7.8 0.00 0.00 0.00 38 1016.8
20260506201209 49 300 1.7 8.7 0.00 0.00 0.00 39 1016.8
20260506200705 50 19 5.2 13.0 0.00 0.00 0.00 38 1017.0
20260506200203 51 339 1.7 4.3 0.00 0.00 0.00 37 1016.7
20260506195659 51 356 5.2 8.7 0.00 0.00 0.00 38 1016.9
20260506195155 50 236 2.6 6.1 0.00 0.00 0.00 38 1017.1
20260506194653 50 248 5.2 7.0 0.00 0.00 0.00 38 1017.1
20260506194149 51 296 6.1 9.6 0.00 0.00 0.00 38 1017.1
20260506193647 53 278 4.3 9.6 0.00 0.00 0.00 39 1017.0
20260506193143 49 259 2.6 5.2 0.00 0.00 0.00 39 1017.2
20260506192640 50 332 5.2 9.6 0.00 0.00 0.00 40 1017.4
20260506192136 49 0 3.5 7.0 0.00 0.00 0.00 41 1017.4
20260506191634 48 358 2.6 11.3 0.00 0.00 0.00 40 1017.3
20260506191129 49 330 7.0 7.8 0.00 0.00 0.00 41 1017.5
20260506190627 49 206 1.7 5.2 0.00 0.00 0.00 41 1017.3
20260506190123 49 341 5.2 13.0 0.00 0.00 0.00 39 1017.6
20260506185621 51 279 3.5 9.6 0.00 0.00 0.00 39 1017.5
20260506185117 50 270 1.7 6.1 0.00 0.00 0.00 41 1017.5
20260506184614 48 320 3.5 7.8 0.00 0.00 0.00 41 1017.5
20260506184111 48 242 5.2 11.3 0.00 0.00 0.00 41 1017.6
20260506183608 48 247 4.3 9.6 0.00 0.00 0.00 41 1017.8
20260506183104 49 311 4.3 9.6 0.00 0.00 0.00 42 1018.0
20260506182602 47 344 7.8 16.5 0.00 0.00 0.00 42 1017.9
20260506182058 49 220 2.6 7.0 0.00 0.00 0.00 40 1018.0
20260506181556 48 298 2.6 11.3 0.00 0.00 0.00 41 1018.2
20260506181053 50 317 2.6 10.4 0.00 0.00 0.00 42 1018.1
20260506180550 50 213 5.2 13.0 0.00 0.00 0.00 41 1018.2
20260506180046 48 219 4.3 15.6 0.00 0.00 0.00 44 1018.2
20260506175543 47 236 5.2 8.7 0.00 0.00 0.00 43 1018.5
20260506175039 48 289 2.6 9.6 0.00 0.00 0.00 42 1018.6
20260506174538 49 198 4.3 7.0 0.00 0.00 0.00 42 1018.7
20260506174033 46 338 3.5 13.9 0.00 0.00 0.00 43 1018.8
20260506173532 48 237 0.9 8.7 0.00 0.00 0.00 41 1018.7
20260506173028 48 297 2.6 10.4 0.00 0.00 0.00 44 1018.8
20260506172526 45 26 5.2 8.7 0.00 0.00 0.00 45 1018.5
20260506172022 48 223 4.3 5.2 0.00 0.00 0.00 42 1018.8
20260506171519 48 220 2.6 8.7 0.00 0.00 0.00 44 1018.9
20260506171017 46 101 1.7 9.6 0.00 0.00 0.00 43 1018.8
20260506170514 47 308 4.3 7.0 0.00 0.00 0.00 46 1019.0
20260506170006 46 278 2.6 8.7 0.00 0.00 0.00 45 1019.3
20260506165504 47 277 3.5 14.8 0.00 0.00 0.00 43 1018.8
20260506165000 47 201 2.6 6.1 0.00 0.00 0.00 45 1019.2
20260506164456 47 235 2.6 11.3 0.00 0.00 0.00 44 1019.1
20260506163954 45 353 1.7 8.7 0.00 0.00 0.00 46 1019.1
20260506163449 46 344 3.5 6.1 0.00 0.00 0.00 44 1019.3
20260506162944 46 337 7.8 13.0 0.00 0.00 0.00 44 1019.4
20260506162442 44 348 8.7 10.4 0.00 0.00 0.00 47 1019.6
20260506161939 45 206 4.3 7.8 0.00 0.00 0.00 48 1019.5
20260506161437 44 348 1.7 9.6 0.00 0.00 0.00 48 1019.4
20260506160934 45 255 6.1 8.7 0.00 0.00 0.00 47 1019.6
20260506160432 45 210 6.1 11.3 0.00 0.00 0.00 47 1019.5
20260506155929 44 82 0.9 7.8 0.00 0.00 0.00 48 1019.7
20260506155426 44 289 3.5 6.1 0.00 0.00 0.00 48 1019.6
20260506153548 44 230 4.3 5.2 0.00 0.00 0.00 48 1019.6
20260506153045 43 270 1.7 7.0 0.00 0.00 0.00 49 1019.7
20260506152542 43 306 5.2 11.3 0.00 0.00 0.00 49 1019.8
20260506152040 42 285 0.0 6.1 0.00 0.00 0.00 50 1019.9
20260506151538 42 358 6.1 7.8 0.00 0.00 0.00 52 1019.8
20260506151035 42 359 4.3 7.8 0.00 0.00 0.00 51 1019.7
20260506150531 42 2 2.6 4.3 0.00 0.00 0.00 51 1019.9
20260506150028 42 251 0.0 7.0 0.00 0.00 0.00 53 1019.7
20260506145525 41 202 4.3 6.1 0.00 0.00 0.00 53 1019.8
20260506145023 41 18 0.9 4.3 0.00 0.00 0.00 60 1020.0
20260506144519 40 9 1.7 5.2 0.00 0.00 0.00 59 1020.0
20260506144017 40 32 3.5 6.1 0.00 0.00 0.00 60 1019.9
20260506143514 39 356 1.7 2.6 0.00 0.00 0.00 63 1019.9
20260506143013 39 133 0.0 2.6 0.00 0.00 0.00 62 1019.8
20260506142510 38 352 1.7 6.1 0.00 0.00 0.00 64 1020.0
20260506142008 39 31 4.3 4.3 0.00 0.00 0.00 63 1020.2
20260506141505 38 180 0.9 1.7 0.00 0.00 0.00 63 1019.9
20260506141004 37 323 0.0 2.6 0.00 0.00 0.00 64 1019.9
20260506140500 37 165 0.0 1.7 0.00 0.00 0.00 64 1020.2
20260506135957 36 157 0.9 2.6 0.00 0.00 0.00 66 1020.2
20260506135454 35 307 1.7 4.3 0.00 0.00 0.00 66 1020.2
20260506134950 34 286 1.7 4.3 0.00 0.00 0.00 68 1020.2
20260506134446 34 213 1.7 1.7 0.00 0.00 0.00 71 1019.9
20260506133943 32 337 0.0 3.5 0.00 0.00 0.00 72 1019.8
20260506133440 32 237 0.0 2.6 0.00 0.00 0.00 72 1020.0
20260506132937 32 166 0.9 2.6 0.00 0.00 0.00 71 1020.0
20260506132434 31 6 0.0 2.6 0.00 0.00 0.00 73 1019.9
20260506131932 31 187 0.0 2.6 0.00 0.00 0.00 71 1020.2
20260506131428 30 189 0.0 3.5 0.00 0.00 0.00 72 1020.2
20260506130925 29 243 2.6 7.8 0.00 0.00 0.00 75 1019.8
20260506130421 28 221 1.7 7.8 0.00 0.00 0.00 76 1019.8
20260506125920 28 216 7.0 7.8 0.00 0.00 0.00 77 1019.7
20260506125418 27 232 3.5 7.0 0.00 0.00 0.00 78 1019.8
20260506124916 26 194 3.5 7.0 0.00 0.00 0.00 78 1019.8
20260506124413 26 214 4.3 8.7 0.00 0.00 0.00 79 1019.7
20260506123911 25 225 5.2 8.7 0.00 0.00 0.00 80 1019.8
20260506123408 24 229 3.5 8.7 0.00 0.00 0.00 80 1019.8
20260506122906 23 289 0.9 6.1 0.00 0.00 0.00 81 1019.7
20260506122402 23 206 4.3 4.3 0.00 0.00 0.00 82 1019.6
20260506121901 22 212 1.7 4.3 0.00 0.00 0.00 82 1019.7
20260506121357 21 218 3.5 5.2 0.00 0.00 0.00 83 1019.4
20260506120854 20 212 2.6 6.1 0.00 0.00 0.00 84 1019.5
20260506120352 20 223 4.3 4.3 0.00 0.00 0.00 84 1019.6
20260506115849 20 212 2.6 3.5 0.00 0.00 0.00 84 1019.4
20260506115347 19 213 2.6 3.5 0.00 0.00 0.00 84 1019.1
20260506114845 20 210 3.5 4.3 0.00 0.00 0.00 83 1019.3
20260506114342 20 213 1.7 2.6 0.00 0.00 0.00 83 1019.3
20260506113841 20 206 1.7 2.6 0.00 0.00 0.00 83 1019.3
20260506113338 20 208 0.0 2.6 0.00 0.00 0.00 83 1019.5
20260506112834 20 196 0.9 2.6 0.00 0.00 0.00 83 1019.4
20260506112332 21 180 0.0 2.6 0.00 0.00 0.00 83 1019.3
20260506111829 21 35 0.0 0.9 0.00 0.00 0.00 83 1019.6
20260506111327 22 8 1.7 3.5 0.00 0.00 0.00 83 1019.5
20260506110824 22 305 2.6 3.5 0.00 0.00 0.00 82 1019.6
20260506110321 22 337 0.0 3.5 0.00 0.00 0.00 83 1019.3
20260506105818 21 349 1.7 4.3 0.00 0.00 0.00 84 1019.3
20260506105315 21 29 2.6 3.5 0.00 0.00 0.00 84 1019.4
20260506104812 21 3 2.6 4.3 0.00 0.00 0.00 83 1019.3
20260506104310 21 4 1.7 4.3 0.00 0.00 0.00 81 1019.4